| time (UTC) | temp C | wind direction | speed KPH | gust KPH | rain 1hr cm | rain 24hr cm | rain mn cm | humidity % | barometer mb |
| 20260505074506 | 11 | 18 | 0.0 | 0.0 | 0.00 | 0.00 | 0.00 | 93 | 1014.1 |
| 20260505073043 | 11 | 18 | 0.0 | 0.0 | 0.00 | 0.00 | 0.00 | 93 | 1013.9 |
| 20260505071529 | 11 | 18 | 0.0 | 0.0 | 0.00 | 0.00 | 0.00 | 92 | 1013.7 |
| 20260505070042 | 11 | 18 | 0.0 | 0.0 | 0.00 | 0.00 | 0.00 | 92 | 1013.6 |
| 20260505064525 | 11 | 18 | 0.0 | 0.0 | 0.00 | 0.00 | 0.00 | 91 | 1013.5 |
| 20260505063012 | 12 | 18 | 0.0 | 0.0 | 0.00 | 0.00 | 0.00 | 91 | 1013.4 |
| 20260505061543 | 12 | 18 | 0.0 | 0.0 | 0.00 | 0.00 | 0.00 | 90 | 1013.2 |
| 20260505060017 | 12 | 18 | 0.0 | 0.0 | 0.00 | 0.00 | 0.00 | 90 | 1013.0 |
| 20260505054554 | 12 | 18 | 0.0 | 0.0 | 0.00 | 0.00 | 0.00 | 89 | 1012.7 |
| 20260505053032 | 12 | 18 | 0.0 | 0.0 | 0.00 | 0.00 | 0.00 | 89 | 1012.7 |
| 20260505051557 | 12 | 18 | 0.0 | 0.0 | 0.00 | 0.00 | 0.00 | 88 | 1012.5 |
| 20260505041517 | 14 | 18 | 0.0 | 0.0 | 0.00 | 0.00 | 0.00 | 83 | 1012.0 |
| 20260505040043 | 15 | 18 | 0.0 | 1.6 | 0.00 | 0.00 | 0.00 | 82 | 1011.9 |
| 20260505034526 | 15 | 18 | 0.0 | 0.0 | 0.00 | 0.00 | 0.00 | 80 | 1011.7 |
| 20260505033019 | 16 | 18 | 0.0 | 0.0 | 0.00 | 0.00 | 0.00 | 79 | 1011.5 |
| 20260505031548 | 16 | 18 | 0.0 | 0.0 | 0.00 | 0.00 | 0.00 | 77 | 1011.2 |
| 20260505030026 | 17 | 18 | 0.0 | 3.2 | 0.00 | 0.00 | 0.00 | 75 | 1011.1 |
| 20260505024555 | 17 | 19 | 0.0 | 0.0 | 0.00 | 0.00 | 0.00 | 75 | 1011.1 |
| 20260505023024 | 17 | 20 | 0.0 | 0.0 | 0.00 | 0.00 | 0.00 | 74 | 1011.0 |
| 20260505021601 | 17 | 20 | 0.0 | 0.0 | 0.00 | 0.00 | 0.00 | 71 | 1011.1 |
| 20260505021501 | 17 | 20 | 0.0 | 0.0 | 0.00 | 0.00 | 0.00 | 71 | 1011.1 |
| 20260505020032 | 18 | 20 | 0.0 | 3.2 | 0.00 | 0.00 | 0.00 | 68 | 1011.2 |
| 20260505014514 | 18 | 9 | 1.6 | 6.4 | 0.00 | 0.00 | 0.00 | 67 | 1011.3 |
| 20260505013042 | 18 | 11 | 3.2 | 9.7 | 0.00 | 0.00 | 0.00 | 66 | 1011.3 |
| 20260505011515 | 18 | 5 | 3.2 | 9.7 | 0.00 | 0.00 | 0.00 | 65 | 1011.4 |
| 20260505010040 | 18 | 20 | 4.8 | 8.0 | 0.00 | 0.00 | 0.00 | 63 | 1011.6 |
| 20260505004519 | 19 | 15 | 3.2 | 11.3 | 0.00 | 0.00 | 0.00 | 62 | 1011.7 |
| 20260505003046 | 19 | 14 | 6.4 | 14.5 | 0.00 | 0.00 | 0.00 | 63 | 1011.7 |
| 20260505001527 | 19 | 5 | 8.0 | 14.5 | 0.00 | 0.00 | 0.00 | 61 | 1011.6 |
| 20260505000050 | 19 | 15 | 4.8 | 14.5 | 0.00 | 0.00 | 0.00 | 61 | 1011.7 |
| 20260504234528 | 20 | 13 | 3.2 | 17.7 | 0.00 | 0.00 | 0.00 | 60 | 1011.6 |
| 20260504233056 | 21 | 38 | 4.8 | 12.9 | 0.00 | 0.00 | 0.00 | 59 | 1011.5 |
| 20260504231538 | 21 | 15 | 6.4 | 14.5 | 0.00 | 0.00 | 0.00 | 55 | 1011.6 |
| 20260504230006 | 21 | 360 | 11.3 | 16.1 | 0.00 | 0.00 | 0.00 | 53 | 1011.5 |
| 20260504224548 | 20 | 31 | 1.6 | 12.9 | 0.00 | 0.00 | 0.00 | 52 | 1011.8 |
| 20260504223012 | 20 | 22 | 6.4 | 14.5 | 0.00 | 0.00 | 0.00 | 56 | 1011.9 |
| 20260504221546 | 20 | 19 | 11.3 | 19.3 | 0.00 | 0.00 | 0.00 | 54 | 1012.0 |
| 20260504220024 | 20 | 14 | 11.3 | 19.3 | 0.00 | 0.00 | 0.00 | 55 | 1012.1 |
| 20260504214557 | 20 | 22 | 12.9 | 22.5 | 0.00 | 0.00 | 0.00 | 56 | 1012.1 |
| 20260504213024 | 21 | 5 | 11.3 | 20.9 | 0.00 | 0.00 | 0.00 | 52 | 1012.2 |
| 20260504211559 | 22 | 22 | 8.0 | 14.5 | 0.00 | 0.00 | 0.00 | 47 | 1012.3 |
| 20260504211502 | 22 | 355 | 6.4 | 14.5 | 0.00 | 0.00 | 0.00 | 48 | 1012.3 |
| 20260504210032 | 22 | 65 | 11.3 | 17.7 | 0.00 | 0.00 | 0.00 | 48 | 1012.3 |
| 20260504204515 | 21 | 28 | 9.7 | 17.7 | 0.00 | 0.00 | 0.00 | 52 | 1012.3 |
| 20260504203049 | 21 | 39 | 8.0 | 20.9 | 0.00 | 0.00 | 0.00 | 56 | 1012.3 |
| 20260504201528 | 21 | 48 | 8.0 | 17.7 | 0.00 | 0.00 | 0.00 | 58 | 1012.4 |
| 20260504200101 | 21 | 39 | 9.7 | 16.1 | 0.00 | 0.00 | 0.00 | 57 | 1012.4 |
| 20260504194539 | 20 | 47 | 9.7 | 16.1 | 0.00 | 0.00 | 0.00 | 57 | 1012.5 |
| 20260504193059 | 20 | 60 | 9.7 | 17.7 | 0.00 | 0.00 | 0.00 | 57 | 1012.4 |
| 20260504191551 | 20 | 17 | 9.7 | 20.9 | 0.00 | 0.00 | 0.00 | 54 | 1012.5 |
| 20260504190010 | 20 | 38 | 9.7 | 19.3 | 0.00 | 0.00 | 0.00 | 56 | 1012.5 |
| 20260504184554 | 20 | 5 | 1.6 | 16.1 | 0.00 | 0.00 | 0.00 | 56 | 1012.6 |
| 20260504183012 | 19 | 38 | 3.2 | 22.5 | 0.00 | 0.00 | 0.00 | 59 | 1012.8 |
| 20260504181549 | 18 | 5 | 12.9 | 22.5 | 0.00 | 0.00 | 0.00 | 62 | 1012.8 |
| 20260504180012 | 18 | 37 | 11.3 | 19.3 | 0.00 | 0.00 | 0.00 | 64 | 1012.7 |
| 20260504174548 | 18 | 27 | 9.7 | 20.9 | 0.00 | 0.00 | 0.00 | 65 | 1012.7 |
| 20260504173029 | 18 | 42 | 0.0 | 16.1 | 0.00 | 0.00 | 0.00 | 62 | 1012.7 |
| 20260504171510 | 18 | 34 | 0.0 | 17.7 | 0.00 | 0.00 | 0.00 | 61 | 1012.7 |
| 20260504081530 | 12 | 11 | 0.0 | 1.6 | 0.00 | 0.00 | 0.00 | 75 | 1011.1 |